Location: Unspecified
(47.6578°N, 23.5640°E)
Time: 04:21:22
(UTC+02:00)

ISS - Pass Details

Date: 07 December 2017
Orbit: 402 x 407 km, 51.6° (Epoch: 10 December)

Event Time Altitude Azimuth Distance (km) Brightness Sun altitude
Rises 17:51:11 0° 277° (W) 2,329 1.3 -12.4°
Reaches altitude 10° 17:53:21 10° 285° (WNW) 1,468 -0.1 -12.7°
Maximum altitude 17:56:28 39° 356° (N) 621 -3.1 -13.2°
Enters shadow 17:57:57 24° 50° (NE) 883 -2.7 -13.4°
